| time (UTC) | temp F | wind direction | speed MPH | gust MPH | rain 1hr in | rain 24hr in | rain mn in | humidity % | barometer mb |
| 20260831084536 | 49 | 270 | 12.0 | 18.0 | 0.00 | 0.01 | 0.00 | 73 | 1013.3 |
| 20260831083038 | 49 | 246 | 10.0 | 18.0 | 0.00 | 0.01 | 0.00 | 74 | 1013.1 |
| 20260831081536 | 49 | 237 | 10.0 | 17.0 | 0.00 | 0.01 | 0.00 | 74 | 1012.9 |
| 20260831080037 | 48 | 263 | 11.0 | 17.0 | 0.00 | 0.01 | 0.00 | 76 | 1012.5 |
| 20260831074537 | 48 | 269 | 9.0 | 14.0 | 0.00 | 0.01 | 0.00 | 75 | 1012.8 |
| 20260831073037 | 49 | 242 | 11.0 | 17.0 | 0.00 | 0.01 | 0.00 | 74 | 1012.7 |
| 20260831071535 | 50 | 256 | 11.0 | 19.0 | 0.00 | 0.01 | 0.00 | 73 | 1012.8 |
| 20260831070038 | 50 | 248 | 12.0 | 20.0 | 0.00 | 0.01 | 0.00 | 72 | 1012.7 |
| 20260831064537 | 51 | 270 | 12.0 | 20.0 | 0.00 | 0.01 | 0.00 | 71 | 1012.7 |
| 20260831063035 | 52 | 275 | 13.0 | 23.0 | 0.00 | 0.01 | 0.00 | 69 | 1012.7 |
| 20260831061535 | 52 | 242 | 10.0 | 20.0 | 0.00 | 0.01 | 0.00 | 68 | 1013.0 |
| 20260831060043 | 52 | 242 | 12.0 | 20.0 | 0.00 | 0.01 | 0.00 | 67 | 1012.8 |
| 20260831054537 | 53 | 253 | 13.0 | 22.0 | 0.00 | 0.01 | 0.01 | 66 | 1012.7 |
| 20260831053036 | 53 | 257 | 13.0 | 19.0 | 0.00 | 0.01 | 0.01 | 65 | 1012.5 |
| 20260831051538 | 53 | 263 | 14.0 | 23.0 | 0.00 | 0.01 | 0.01 | 66 | 1012.5 |
| 20260831050037 | 53 | 276 | 13.0 | 22.0 | 0.00 | 0.01 | 0.01 | 67 | 1012.4 |
| 20260831044536 | 53 | 271 | 14.0 | 20.0 | 0.00 | 0.01 | 0.01 | 66 | 1012.6 |
| 20260831043037 | 54 | 291 | 15.0 | 22.0 | 0.00 | 0.01 | 0.01 | 66 | 1012.5 |
| 20260831041536 | 54 | 296 | 13.0 | 24.0 | 0.00 | 0.01 | 0.01 | 64 | 1012.7 |
| 20260831040035 | 58 | 292 | 15.0 | 23.0 | 0.00 | 0.01 | 0.01 | 52 | 1012.6 |
| 20260831034537 | 58 | 267 | 18.0 | 26.0 | 0.00 | 0.01 | 0.01 | 51 | 1012.5 |
| 20260831033039 | 59 | 267 | 17.0 | 28.0 | 0.00 | 0.01 | 0.01 | 51 | 1012.2 |
| 20260831031539 | 59 | 257 | 17.0 | 29.0 | 0.00 | 0.01 | 0.01 | 50 | 1012.2 |
| 20260831030038 | 58 | 259 | 18.0 | 29.0 | 0.00 | 0.01 | 0.01 | 51 | 1011.9 |
| 20260831024541 | 59 | 247 | 17.0 | 29.0 | 0.00 | 0.01 | 0.01 | 50 | 1011.9 |
| 20260831023037 | 59 | 250 | 19.0 | 30.0 | 0.00 | 0.01 | 0.01 | 50 | 1011.7 |
| 20260831021538 | 59 | 281 | 21.0 | 31.0 | 0.00 | 0.01 | 0.01 | 50 | 1011.4 |
| 20260831020036 | 59 | 243 | 16.0 | 27.0 | 0.00 | 0.01 | 0.01 | 50 | 1011.4 |
| 20260831014540 | 60 | 255 | 18.0 | 34.0 | 0.00 | 0.01 | 0.01 | 49 | 1011.3 |
| 20260831013039 | 61 | 261 | 17.0 | 34.0 | 0.00 | 0.01 | 0.01 | 48 | 1011.2 |
| 20260831011536 | 61 | 255 | 18.0 | 33.0 | 0.00 | 0.01 | 0.01 | 47 | 1011.3 |
| 20260831010040 | 59 | 289 | 13.0 | 25.0 | 0.00 | 0.01 | 0.01 | 52 | 1011.5 |
| 20260831004553 | 59 | 313 | 15.0 | 28.0 | 0.00 | 0.02 | 0.01 | 56 | 1011.6 |
| 20260831003034 | 60 | 288 | 14.0 | 23.0 | 0.00 | 0.02 | 0.01 | 54 | 1011.6 |
| 20260831001534 | 59 | 297 | 18.0 | 30.0 | 0.00 | 0.02 | 0.01 | 54 | 1011.7 |
| 20260831000035 | 61 | 277 | 24.0 | 34.0 | 0.00 | 0.02 | 0.01 | 46 | 1011.3 |
| 20260830234551 | 62 | 277 | 23.0 | 34.0 | 0.00 | 0.30 | 0.01 | 45 | 1011.2 |
| 20260830233034 | 63 | 286 | 21.0 | 37.0 | 0.00 | 0.30 | 0.01 | 43 | 1011.1 |
| 20260830231535 | 63 | 275 | 20.0 | 35.0 | 0.00 | 0.30 | 0.01 | 44 | 1011.1 |
| 20260830230036 | 63 | 282 | 27.0 | 39.0 | 0.00 | 0.30 | 0.01 | 42 | 1011.1 |
| 20260830224536 | 64 | 237 | 23.0 | 34.0 | 0.00 | 0.30 | 0.01 | 43 | 1011.1 |
| 20260830223040 | 62 | 236 | 18.0 | 25.0 | 0.00 | 0.30 | 0.01 | 46 | 1011.4 |
| 20260830221540 | 61 | 257 | 17.0 | 29.0 | 0.00 | 0.30 | 0.01 | 47 | 1011.5 |
| 20260830220037 | 61 | 247 | 21.0 | 31.0 | 0.00 | 0.30 | 0.01 | 48 | 1011.7 |
| 20260830214537 | 61 | 271 | 21.0 | 29.0 | 0.00 | 0.30 | 0.01 | 47 | 1011.8 |
| 20260830213038 | 61 | 232 | 20.0 | 36.0 | 0.00 | 0.30 | 0.01 | 46 | 1011.9 |
| 20260830211534 | 62 | 238 | 21.0 | 34.0 | 0.00 | 0.30 | 0.01 | 45 | 1011.9 |
| 20260830210041 | 62 | 255 | 18.0 | 37.0 | 0.00 | 0.30 | 0.01 | 45 | 1011.9 |
| 20260830204534 | 63 | 279 | 20.0 | 36.0 | 0.00 | 0.30 | 0.01 | 43 | 1011.9 |
| 20260830203046 | 62 | 360 | 26.0 | 36.0 | 0.00 | 0.30 | 0.01 | 46 | 1011.7 |
| 20260830201536 | 61 | 277 | 23.0 | 34.0 | 0.00 | 0.30 | 0.01 | 47 | 1011.8 |
| 20260830200032 | 62 | 266 | 23.0 | 34.0 | 0.00 | 0.30 | 0.01 | 45 | 1011.6 |
| 20260830194538 | 64 | 298 | 18.0 | 33.0 | 0.00 | 0.30 | 0.01 | 41 | 1011.6 |
| 20260830193038 | 63 | 238 | 21.0 | 34.0 | 0.00 | 0.30 | 0.01 | 42 | 1011.8 |
| 20260830191535 | 63 | 263 | 18.0 | 34.0 | 0.00 | 0.30 | 0.01 | 43 | 1011.7 |
| 20260830190038 | 63 | 246 | 20.0 | 31.0 | 0.00 | 0.30 | 0.01 | 41 | 1011.6 |
| 20260830184536 | 63 | 246 | 19.0 | 32.0 | 0.00 | 0.30 | 0.01 | 41 | 1011.5 |
| 20260830183036 | 63 | 276 | 19.0 | 30.0 | 0.00 | 0.30 | 0.01 | 40 | 1011.7 |
| 20260830181536 | 63 | 257 | 19.0 | 28.0 | 0.00 | 0.30 | 0.01 | 42 | 1011.8 |
| 20260830180042 | 63 | 239 | 18.0 | 27.0 | 0.00 | 0.30 | 0.01 | 41 | 1011.9 |
| 20260830174540 | 61 | 231 | 15.0 | 23.0 | 0.00 | 0.30 | 0.01 | 50 | 1011.9 |
| 20260830173050 | 60 | 241 | 15.0 | 22.0 | 0.00 | 0.30 | 0.01 | 50 | 1012.0 |
| 20260830171539 | 60 | 274 | 12.0 | 20.0 | 0.00 | 0.30 | 0.01 | 50 | 1012.3 |
| 20260830170035 | 59 | 209 | 10.0 | 16.0 | 0.00 | 0.30 | 0.01 | 54 | 1012.3 |
| 20260830164536 | 59 | 219 | 10.0 | 21.0 | 0.00 | 0.30 | 0.01 | 54 | 1012.5 |
| 20260830163040 | 58 | 209 | 8.0 | 15.0 | 0.00 | 0.30 | 0.01 | 52 | 1012.5 |
| 20260830161534 | 59 | 243 | 8.0 | 14.0 | 0.00 | 0.30 | 0.01 | 50 | 1012.3 |
| 20260830160037 | 58 | 258 | 8.0 | 15.0 | 0.00 | 0.30 | 0.01 | 50 | 1012.6 |
| 20260830154538 | 58 | 254 | 8.0 | 12.0 | 0.00 | 0.30 | 0.01 | 50 | 1012.6 |
| 20260830153037 | 57 | 244 | 5.0 | 10.0 | 0.00 | 0.30 | 0.01 | 52 | 1012.7 |
| 20260830151537 | 57 | 291 | 5.0 | 9.0 | 0.00 | 0.30 | 0.01 | 52 | 1012.8 |
| 20260830150054 | 57 | 294 | 3.0 | 9.0 | 0.00 | 0.30 | 0.01 | 54 | 1012.9 |
| 20260830144539 | 57 | 289 | 5.0 | 10.0 | 0.00 | 0.30 | 0.01 | 55 | 1013.0 |
| 20260830143041 | 56 | 317 | 3.0 | 8.0 | 0.00 | 0.30 | 0.01 | 58 | 1012.9 |
| 20260830141537 | 55 | 297 | 3.0 | 9.0 | 0.00 | 0.30 | 0.01 | 60 | 1013.0 |
| 20260830140040 | 54 | 53 | 0.0 | 3.0 | 0.00 | 0.30 | 0.01 | 70 | 1013.2 |
| 20260830134545 | 54 | 120 | 5.0 | 9.0 | 0.00 | 0.30 | 0.01 | 73 | 1013.3 |
| 20260830133035 | 55 | 155 | 1.0 | 10.0 | 0.00 | 0.30 | 0.01 | 67 | 1013.2 |
| 20260830131540 | 55 | 263 | 8.0 | 13.0 | 0.00 | 0.30 | 0.01 | 65 | 1012.8 |
| 20260830130034 | 56 | 261 | 8.0 | 11.0 | 0.00 | 0.30 | 0.01 | 67 | 1012.8 |
| 20260830124541 | 55 | 277 | 6.0 | 9.0 | 0.00 | 0.30 | 0.01 | 78 | 1012.5 |
| 20260830123038 | 55 | 305 | 6.0 | 8.0 | 0.00 | 0.30 | 0.01 | 82 | 1012.2 |
| 20260830121534 | 55 | 273 | 5.0 | 9.0 | 0.00 | 0.30 | 0.01 | 83 | 1012.0 |
| 20260830120042 | 55 | 279 | 6.0 | 12.0 | 0.00 | 0.30 | 0.01 | 82 | 1012.2 |
| 20260830114544 | 54 | 262 | 9.0 | 13.0 | 0.00 | 0.30 | 0.01 | 82 | 1012.4 |
| 20260830113034 | 54 | 280 | 10.0 | 17.0 | 0.00 | 0.30 | 0.01 | 82 | 1012.2 |
| 20260830111534 | 55 | 282 | 13.0 | 18.0 | 0.00 | 0.30 | 0.01 | 81 | 1012.2 |
| 20260830110039 | 55 | 300 | 7.0 | 11.0 | 0.00 | 0.30 | 0.01 | 81 | 1012.0 |
| 20260830104538 | 55 | 281 | 7.0 | 12.0 | 0.00 | 0.30 | 0.01 | 82 | 1011.8 |
| 20260830103047 | 55 | 302 | 6.0 | 11.0 | 0.00 | 0.30 | 0.01 | 81 | 1011.3 |
| 20260830101536 | 55 | 263 | 10.0 | 18.0 | 0.00 | 0.30 | 0.01 | 81 | 1011.6 |
| 20260830100039 | 56 | 280 | 8.0 | 13.0 | 0.00 | 0.30 | 0.01 | 80 | 1011.4 |
| 20260830094539 | 55 | 263 | 10.0 | 13.0 | 0.00 | 0.30 | 0.01 | 84 | 1011.6 |
| 20260830093052 | 55 | 215 | 7.0 | 11.0 | 0.00 | 0.30 | 0.01 | 85 | 1011.6 |
| 20260830091539 | 55 | 219 | 11.0 | 15.0 | 0.00 | 0.30 | 0.01 | 83 | 1011.7 |
| 20260830090035 | 55 | 254 | 12.0 | 25.0 | 0.01 | 0.30 | 0.01 | 83 | 1011.9 |